TimeEDT,TemperatureF,Dew PointF,Humidity,Sea Level PressureIn,VisibilityMPH,Wind Direction,Wind SpeedMPH,Gust SpeedMPH,PrecipitationIn,Events,Conditions,WindDirDegrees,DateUTC
12:15 AM,66.2,60.8,83,29.88,10.0,WNW,3.5,-,N/A,,Clear,290,2013-06-17 04:15:00
12:35 AM,66.2,60.8,83,29.88,10.0,Calm,Calm,-,N/A,,Clear,0,2013-06-17 04:35:00
12:55 AM,66.2,60.8,83,29.88,10.0,WNW,3.5,-,N/A,,Clear,290,2013-06-17 04:55:00
1:15 AM,66.2,60.8,83,29.88,10.0,Calm,Calm,-,N/A,,Clear,0,2013-06-17 05:15:00
1:35 AM,62.6,57.2,82,29.88,10.0,Calm,Calm,-,N/A,,Clear,0,2013-06-17 05:35:00
1:55 AM,60.8,57.2,88,29.88,10.0,SSW,3.5,-,N/A,,Clear,200,2013-06-17 05:55:00
2:15 AM,60.8,57.2,88,29.88,10.0,Calm,Calm,-,N/A,,Clear,0,2013-06-17 06:15:00
2:35 AM,60.8,55.4,82,29.88,9.0,Calm,Calm,-,N/A,,Clear,0,2013-06-17 06:35:00
2:55 AM,60.8,55.4,82,29.89,10.0,Calm,Calm,-,N/A,,Clear,0,2013-06-17 06:55:00
3:15 AM,60.8,55.4,82,29.89,8.0,Calm,Calm,-,N/A,,Clear,0,2013-06-17 07:15:00
3:35 AM,59.0,55.4,88,29.89,8.0,Calm,Calm,-,N/A,,Clear,0,2013-06-17 07:35:00
3:55 AM,60.8,57.2,88,29.88,10.0,SSW,3.5,-,N/A,,Clear,200,2013-06-17 07:55:00
4:15 AM,60.8,55.4,82,29.88,10.0,Calm,Calm,-,N/A,,Clear,0,2013-06-17 08:15:00
4:35 AM,59.0,55.4,88,29.88,10.0,Calm,Calm,-,N/A,,Clear,0,2013-06-17 08:35:00
4:55 AM,59.0,55.4,88,29.90,8.0,Calm,Calm,-,N/A,,Clear,0,2013-06-17 08:55:00
5:15 AM,60.8,57.2,88,29.90,9.0,West,3.5,-,N/A,,Clear,260,2013-06-17 09:15:00
5:35 AM,60.8,57.2,88,29.90,10.0,Calm,Calm,-,N/A,,Clear,0,2013-06-17 09:35:00
6:45 AM,64.4,60.8,88,29.92,10.0,Calm,Calm,-,N/A,,Clear,0,2013-06-17 10:45:00
7:45 AM,66.2,62.6,88,29.93,10.0,Calm,Calm,-,N/A,,Clear,0,2013-06-17 11:45:00
8:45 AM,71.6,62.6,73,29.94,10.0,West,4.6,-,N/A,,Clear,270,2013-06-17 12:45:00
9:45 AM,73.4,62.6,69,29.93,10.0,WNW,6.9,-,N/A,,Partly Cloudy,300,2013-06-17 13:45:00
10:45 AM,75.2,64.4,69,29.92,10.0,West,6.9,-,N/A,,Partly Cloudy,270,2013-06-17 14:45:00
11:45 AM,77.0,62.6,61,29.91,10.0,West,8.1,-,N/A,,Scattered Clouds,280,2013-06-17 15:45:00
12:45 PM,80.6,60.8,51,29.92,10.0,West,4.6,-,N/A,,Scattered Clouds,270,2013-06-17 16:45:00
1:45 PM,80.6,62.6,54,29.90,10.0,WSW,6.9,-,N/A,,Scattered Clouds,250,2013-06-17 17:45:00
2:45 PM,80.6,62.6,54,29.89,10.0,SSW,13.8,18.4,N/A,,Partly Cloudy,200,2013-06-17 18:45:00
3:45 PM,78.8,62.6,57,29.88,10.0,SSW,8.1,17.3,N/A,,Partly Cloudy,200,2013-06-17 19:45:00
4:45 PM,80.6,62.6,54,29.88,10.0,SW,9.2,17.3,N/A,,Partly Cloudy,230,2013-06-17 20:45:00
5:45 PM,80.6,62.6,54,29.88,10.0,SW,9.2,17.3,N/A,,Mostly Cloudy,230,2013-06-17 21:45:00
6:15 PM,73.4,55.4,53,29.88,10.0,North,18.4,28.8,N/A,,Mostly Cloudy,360,2013-06-17 22:15:00
6:45 PM,71.6,55.4,57,29.90,10.0,SSW,8.1,-,N/A,,Scattered Clouds,200,2013-06-17 22:45:00
7:45 PM,71.6,57.2,60,29.93,10.0,East,4.6,-,N/A,,Partly Cloudy,100,2013-06-17 23:45:00
8:55 PM,66.2,57.2,73,29.93,10.0,Calm,Calm,-,N/A,,Clear,0,2013-06-18 00:55:00
9:15 PM,64.4,55.4,73,29.94,10.0,NE,4.6,-,N/A,,Clear,50,2013-06-18 01:15:00
9:35 PM,64.4,55.4,73,29.94,10.0,Calm,Calm,-,N/A,,Clear,0,2013-06-18 01:35:00
9:55 PM,66.2,55.4,68,29.95,10.0,East,5.8,-,N/A,,Clear,80,2013-06-18 01:55:00
10:15 PM,62.6,55.4,77,29.96,10.0,SW,5.8,-,N/A,,Clear,230,2013-06-18 02:15:00
10:35 PM,62.6,55.4,77,29.96,10.0,NE,3.5,-,N/A,,Scattered Clouds,40,2013-06-18 02:35:00
10:55 PM,62.6,55.4,77,29.95,10.0,Calm,Calm,-,N/A,,Partly Cloudy,0,2013-06-18 02:55:00
11:15 PM,62.6,55.4,77,29.96,10.0,Calm,Calm,-,N/A,,Clear,0,2013-06-18 03:15:00
11:35 PM,62.6,57.2,82,29.96,10.0,Calm,Calm,-,N/A,,Mostly Cloudy,0,2013-06-18 03:35:00
11:55 PM,62.6,57.2,82,29.96,10.0,Calm,Calm,-,N/A,,Mostly Cloudy,0,2013-06-18 03:55:00